TimeCDT,TemperatureF,Dew PointF,Humidity,Sea Level PressureIn,VisibilityMPH,Wind Direction,Wind SpeedMPH,Gust SpeedMPH,PrecipitationIn,Events,Conditions,WindDirDegrees,DateUTC
12:51 AM,41.0,23.0,49,30.00,10.0,West,4.6,-,N/A,,Clear,270,2012-11-01 05:51:00
1:51 AM,39.9,23.0,51,30.00,10.0,West,4.6,-,N/A,,Clear,280,2012-11-01 06:51:00
2:51 AM,39.0,24.1,55,30.00,10.0,West,4.6,-,N/A,,Clear,270,2012-11-01 07:51:00
3:51 AM,39.0,24.1,55,29.99,10.0,West,5.8,-,N/A,,Clear,270,2012-11-01 08:51:00
4:51 AM,39.0,25.0,57,29.99,10.0,Calm,Calm,-,N/A,,Partly Cloudy,0,2012-11-01 09:51:00
5:51 AM,37.9,25.0,60,30.02,10.0,West,4.6,-,N/A,,Partly Cloudy,260,2012-11-01 10:51:00
6:51 AM,39.9,24.1,53,30.03,10.0,West,4.6,-,N/A,,Scattered Clouds,270,2012-11-01 11:51:00
7:51 AM,39.0,25.0,57,30.02,10.0,WSW,4.6,-,N/A,,Mostly Cloudy,250,2012-11-01 12:51:00
8:51 AM,45.0,27.0,49,30.03,10.0,WSW,4.6,-,N/A,,Mostly Cloudy,240,2012-11-01 13:51:00
9:51 AM,48.9,28.0,44,30.03,10.0,West,5.8,-,N/A,,Mostly Cloudy,270,2012-11-01 14:51:00
10:51 AM,53.1,28.9,40,30.03,10.0,West,3.5,-,N/A,,Mostly Cloudy,280,2012-11-01 15:51:00
11:51 AM,57.9,32.0,37,30.02,10.0,Calm,Calm,-,N/A,,Mostly Cloudy,0,2012-11-01 16:51:00
12:51 PM,60.1,33.1,36,29.98,10.0,West,5.8,-,N/A,,Mostly Cloudy,280,2012-11-01 17:51:00
1:51 PM,61.0,35.1,38,29.95,10.0,West,8.1,-,N/A,,Mostly Cloudy,270,2012-11-01 18:51:00
2:51 PM,62.1,36.0,38,29.92,10.0,SW,10.4,-,N/A,,Mostly Cloudy,230,2012-11-01 19:51:00
3:51 PM,62.1,35.1,37,29.91,10.0,SW,9.2,-,N/A,,Mostly Cloudy,230,2012-11-01 20:51:00
4:51 PM,61.0,37.0,41,29.90,10.0,WSW,4.6,-,N/A,,Mostly Cloudy,240,2012-11-01 21:51:00
5:51 PM,61.0,37.0,41,29.89,10.0,South,3.5,-,N/A,,Mostly Cloudy,170,2012-11-01 22:51:00
6:51 PM,55.9,37.9,51,29.90,10.0,Calm,Calm,-,N/A,,Scattered Clouds,0,2012-11-01 23:51:00
7:51 PM,52.0,37.9,59,29.90,10.0,ESE,3.5,-,N/A,,Partly Cloudy,110,2012-11-02 00:51:00
8:51 PM,51.1,39.0,63,29.89,10.0,Calm,Calm,-,N/A,,Clear,0,2012-11-02 01:51:00
9:51 PM,46.9,37.9,71,29.90,10.0,Calm,Calm,-,N/A,,Clear,0,2012-11-02 02:51:00
10:51 PM,48.0,37.9,68,29.90,10.0,Calm,Calm,-,N/A,,Partly Cloudy,0,2012-11-02 03:51:00
11:51 PM,48.0,37.9,68,29.90,10.0,NNW,5.8,-,N/A,,Scattered Clouds,330,2012-11-02 04:51:00